When you browse on this site, cookies collect data to enhance your experience and personalize the content and advertising you see.
Visit our Privacy Policy to learn more. By continuing to use the site, you agree to this use of cookies and data.
  • In Hungary
  • List of Countries
  • For 7 days
  • Water Temperature
  • Satellite Maps
  • Weather Map
  • News
  • Weather Widgets
  • user-avatar
    Login

    Hourly Weather Widok

    Today, 17 December, Monday

    Time Temperature Precipitation Wind Pressure Humidity
    00:00 -6°C° 0 mm 3 mps 740 mmHg 82%
    01:00 -6°C° 0 mm 3 mps 740 mmHg 84%
    02:00 -5°C° 0 mm 3 mps 740 mmHg 84%
    03:00 -5°C° 0 mm 3 mps 740 mmHg 84%
    04:00 -5°C° 0 mm 3 mps 740 mmHg 84%
    05:00 -4°C° 0 mm 2 mps 740 mmHg 85%
    06:00 -4°C° 0 mm 2 mps 740 mmHg 85%
    07:00 -4°C° 0 mm 2 mps 741 mmHg 87%
    08:00 -4°C° 0 mm 2 mps 741 mmHg 85%
    09:00 -3°C° 0 mm 2 mps 741 mmHg 83%
    10:00 -3°C° 0 mm 2 mps 742 mmHg 81%
    11:00 -2°C° 0 mm 2 mps 742 mmHg 80%
    12:00 -1°C° 0 mm 2 mps 742 mmHg 79%
    13:00 +2°C° 0 mm 1 mps 742 mmHg 78%
    14:00 +1°C° 0 mm 1 mps 742 mmHg 81%
    15:00 0°C° 0 mm 1 mps 743 mmHg 84%
    16:00 -1°C° 0 mm 1 mps 743 mmHg 87%
    17:00 -1°C° 0 mm 1 mps 744 mmHg 87%
    18:00 -1°C° 0 mm 1 mps 744 mmHg 88%
    19:00 -1°C° 0 mm 1 mps 744 mmHg 89%
    20:00 -1°C° 0 mm 1 mps 745 mmHg 89%
    21:00 -3°C° 0 mm 2 mps 745 mmHg 88%
    22:00 -3°C° 0 mm 2 mps 746 mmHg 88%
    23:00 -3°C° 0 mm 2 mps 746 mmHg 89%

    Tomorrow, 18 December, Tuesday

    Time Temperature Precipitation Wind Pressure Humidity
    00:00 -3°C° 0 mm 2 mps 746 mmHg 89%
    01:00 -1°C° 0 mm 1 mps 746 mmHg 89%
    02:00 -1°C° 0 mm 1 mps 746 mmHg 89%
    03:00 -1°C° 0 mm 1 mps 746 mmHg 89%
    04:00 -1°C° 0 mm 1 mps 746 mmHg 89%
    05:00 -1°C° 0 mm 1 mps 746 mmHg 89%
    06:00 0°C° 0 mm 1 mps 746 mmHg 89%
    07:00 0°C° 0 mm 1 mps 746 mmHg 89%
    08:00 0°C° 0 mm 1 mps 747 mmHg 87%
    09:00 +1°C° 0 mm 1 mps 747 mmHg 86%
    10:00 +2°C° 0 mm 1 mps 747 mmHg 84%
    11:00 +2°C° 0 mm 1 mps 747 mmHg 84%
    12:00 +3°C° 0 mm 1 mps 747 mmHg 84%
    13:00 +3°C° 0 mm 1 mps 746 mmHg 83%
    14:00 +3°C° 0 mm 1 mps 746 mmHg 85%
    15:00 +2°C° 0 mm 1 mps 746 mmHg 86%
    16:00 +1°C° 0 mm 1 mps 746 mmHg 88%
    17:00 +1°C° 0 mm 1 mps 746 mmHg 88%
    18:00 0°C° 0 mm 1 mps 746 mmHg 89%
    19:00 0°C° 0 mm 1 mps 746 mmHg 89%
    20:00 0°C° 0 mm 1 mps 746 mmHg 89%
    21:00 0°C° 0 mm 1 mps 746 mmHg 89%
    22:00 0°C° 0 mm 1 mps 746 mmHg 89%
    23:00 0°C° 0 mm 1 mps 746 mmHg 89%

    Day after tomorrow, 19 December, Wednesday

    Time Temperature Precipitation Wind Pressure Humidity
    00:00 -2°C° 0 mm 2 mps 746 mmHg 89%
    01:00 -3°C° 0 mm 2 mps 746 mmHg 89%
    02:00 -3°C° 0 mm 2 mps 746 mmHg 89%
    03:00 -3°C° 0 mm 2 mps 745 mmHg 89%
    04:00 -3°C° 0 mm 2 mps 745 mmHg 89%
    05:00 -3°C° 0 mm 2 mps 745 mmHg 89%
    06:00 -3°C° 0 mm 2 mps 745 mmHg 88%
    07:00 -3°C° 0 mm 2 mps 745 mmHg 88%
    08:00 -2°C° 0 mm 3 mps 745 mmHg 85%
    09:00 -2°C° 0 mm 3 mps 745 mmHg 82%
    10:00 -1°C° 0 mm 3 mps 745 mmHg 79%
    11:00 0°C° 0 mm 3 mps 745 mmHg 76%
    12:00 0°C° 0 mm 3 mps 744 mmHg 74%
    13:00 +1°C° 0 mm 3 mps 744 mmHg 72%
    14:00 0°C° 0 mm 3 mps 744 mmHg 74%
    15:00 -1°C° 0 mm 3 mps 743 mmHg 77%
    16:00 -1°C° 0 mm 3 mps 743 mmHg 79%
    17:00 -2°C° 0 mm 3 mps 743 mmHg 79%
    18:00 -2°C° 0 mm 3 mps 743 mmHg 79%
    19:00 -3°C° 0 mm 4 mps 743 mmHg 80%
    20:00 -3°C° 0 mm 4 mps 743 mmHg 79%
    21:00 -3°C° 0 mm 4 mps 743 mmHg 78%
    22:00 -3°C° 0 mm 4 mps 743 mmHg 77%
    23:00 -3°C° 0 mm 4 mps 743 mmHg 76%

    20 December, Thursday

    Time Temperature Precipitation Wind Pressure Humidity
    00:00 -3°C° 0 mm 4 mps 742 mmHg 74%
    01:00 -3°C° 0 mm 4 mps 742 mmHg 72%
    02:00 -2°C° 0 mm 3 mps 742 mmHg 71%
    03:00 -2°C° 0 mm 3 mps 742 mmHg 71%
    04:00 -2°C° 0 mm 3 mps 742 mmHg 70%
    05:00 -2°C° 0 mm 3 mps 742 mmHg 72%
    06:00 -2°C° 0 mm 3 mps 742 mmHg 73%
    07:00 -2°C° 0 mm 3 mps 742 mmHg 75%
    08:00 -2°C° 0 mm 3 mps 742 mmHg 74%
    09:00 -1°C° 0 mm 3 mps 742 mmHg 74%
    10:00 -1°C° 0 mm 3 mps 742 mmHg 73%
    11:00 -1°C° 0 mm 3 mps 742 mmHg 73%
    12:00 -2°C° 0 mm 4 mps 741 mmHg 73%
    13:00 -2°C° 0 mm 4 mps 741 mmHg 73%
    14:00 -2°C° 0 mm 3 mps 741 mmHg 75%
    15:00 -2°C° 0 mm 3 mps 741 mmHg 77%
    16:00 -2°C° 0 mm 3 mps 742 mmHg 80%
    17:00 -2°C° 0 mm 3 mps 742 mmHg 80%
    18:00 -2°C° 0 mm 3 mps 742 mmHg 81%
    19:00 -3°C° 0 mm 4 mps 742 mmHg 82%
    20:00 -3°C° 0.1 mm 4 mps 742 mmHg 82%
    21:00 -3°C° 0.1 mm 4 mps 742 mmHg 83%
    22:00 -3°C° 0.1 mm 4 mps 742 mmHg 84%
    23:00 -3°C° 0.1 mm 4 mps 742 mmHg 84%

    21 December, Friday

    Time Temperature Precipitation Wind Pressure Humidity
    00:00 -3°C° 0.1 mm 4 mps 742 mmHg 85%
    01:00 -3°C° 0.1 mm 4 mps 742 mmHg 85%
    02:00 -2°C° 0 mm 4 mps 742 mmHg 86%
    03:00 -2°C° 0 mm 4 mps 742 mmHg 86%
    04:00 -2°C° 0 mm 4 mps 742 mmHg 87%
    05:00 -2°C° 0 mm 4 mps 742 mmHg 87%
    06:00 -2°C° 0 mm 4 mps 741 mmHg 87%
    07:00 -2°C° 0 mm 4 mps 741 mmHg 88%
    08:00 -2°C° 0 mm 5 mps 741 mmHg 86%
    09:00 -1°C° 0 mm 5 mps 741 mmHg 85%
    10:00 -2°C° 0 mm 6 mps 740 mmHg 83%
    11:00 -1°C° 0.2 mm 6 mps 740 mmHg 82%
    12:00 -1°C° 0.2 mm 6 mps 739 mmHg 82%
    13:00 -1°C° 0.2 mm 6 mps 739 mmHg 81%
    14:00 0°C° 0 mm 5 mps 739 mmHg 82%
    15:00 0°C° 0 mm 5 mps 738 mmHg 83%
    16:00 0°C° 0 mm 5 mps 738 mmHg 83%
    17:00 0°C° 0.3 mm 5 mps 737 mmHg 84%
    18:00 0°C° 0.3 mm 5 mps 737 mmHg 84%
    19:00 -1°C° 0.3 mm 6 mps 736 mmHg 85%
    20:00 -1°C° 1.1 mm 6 mps 736 mmHg 85%
    21:00 0°C° 1.1 mm 7 mps 735 mmHg 85%
    22:00 0°C° 1.1 mm 7 mps 734 mmHg 85%
    23:00 0°C° 0.5 mm 8 mps 734 mmHg 85%

    22 December, Saturday

    Time Temperature Precipitation Wind Pressure Humidity
    00:00 +1°C° 0.5 mm 8 mps 734 mmHg 85%
    01:00 +2°C° 0.5 mm 8 mps 734 mmHg 85%
    02:00 +3°C° 0 mm 7 mps 734 mmHg 85%
    03:00 +3°C° 0 mm 7 mps 734 mmHg 86%
    04:00 +3°C° 0 mm 6 mps 734 mmHg 87%
    05:00 +3°C° 0 mm 6 mps 734 mmHg 86%
    06:00 +2°C° 0 mm 5 mps 735 mmHg 86%
    07:00 +2°C° 0 mm 5 mps 735 mmHg 85%
    08:00 +2°C° 0.1 mm 5 mps 735 mmHg 85%
    09:00 +3°C° 0.1 mm 6 mps 735 mmHg 85%
    10:00 +3°C° 0.1 mm 6 mps 735 mmHg 86%
    11:00 +4°C° 0.2 mm 6 mps 735 mmHg 85%
    12:00 +4°C° 0.2 mm 6 mps 734 mmHg 85%
    13:00 +4°C° 0.2 mm 6 mps 734 mmHg 85%
    14:00 +4°C° 0.1 mm 6 mps 734 mmHg 85%
    15:00 +4°C° 0.1 mm 6 mps 734 mmHg 85%
    16:00 +4°C° 0.1 mm 6 mps 734 mmHg 84%
    17:00 +4°C° 0.1 mm 6 mps 734 mmHg 83%
    18:00 +4°C° 0.1 mm 7 mps 735 mmHg 82%
    19:00 +3°C° 0.1 mm 7 mps 736 mmHg 81%
    20:00 +3°C° 0.1 mm 6 mps 736 mmHg 83%
    21:00 +3°C° 0.1 mm 6 mps 737 mmHg 84%
    22:00 +3°C° 0.1 mm 6 mps 738 mmHg 86%
    23:00 +3°C° 0.1 mm 5 mps 738 mmHg 87%
    Show more